Location: Unspecified
(0.0000°N, 0.0000°E)
Time: 05:07:11
(UTC+00:00)

CUTE 1.7 + AOD 2 - Pass Details

Date: 20 May 2026
Orbit: 531 x 545 km, 97.8° (Epoch: 11 June)

Event Time Altitude Azimuth Distance (km) Brightness Sun altitude
Rises 04:02:01 0° 14° (NNE) 2,657 ? -26.8°
Reaches altitude 10° 04:04:06 10° 16° (NNE) 1,772 ? -26.3°
Enters shadow 04:07:02 50° 31° (NNE) 680 ? -25.6°
